Location: Harbor Hills
(33.7803°N, 118.3148°W)
Time: 07:40:02
(UTC+00:00)

Meteor 1-24 Rocket - Pass Details

Date: 05 August 2024
Orbit: 790 x 925 km, 81.3° (Epoch: 15 September)

Event Time Altitude Azimuth Distance (km) Brightness Sun altitude
Rises 12:28:50 0° 342° (NNW) 3,493 7.0 -8.4°
Reaches altitude 10° 12:31:24 10° 335° (NNW) 2,568 6.2 -7.9°
Maximum altitude 12:36:47 39° 268° (W) 1,339 4.3 -6.9°
Drops below altitude 10° 12:42:16 10° 202° (SSW) 2,609 5.8 -5.9°
Sets 12:44:54 0° 194° (SSW) 3,554 6.6 -5.4°
